When you browse on this site, cookies collect data to enhance your experience and personalize the content and advertising you see.
Visit our Privacy Policy to learn more. By continuing to use the site, you agree to this use of cookies and data.

Tiempo cada hora Logroño

Hoy, 9 Agosto, Domingo

Tiempo Temperatura Precipitaciones Viento Presión Humedad
00:00 +24°C° 0 mm 2 mps 729 mmHg 72%
01:00 +24°C° 0 mm 2 mps 728 mmHg 72%
02:00 +24°C° 0 mm 1 mps 728 mmHg 72%
03:00 +23°C° 0 mm 1 mps 727 mmHg 72%
04:00 +23°C° 0 mm 1 mps 727 mmHg 72%
05:00 +23°C° 0 mm 1 mps 727 mmHg 72%
06:00 +24°C° 0 mm 1 mps 727 mmHg 71%
07:00 +26°C° 0 mm 1 mps 727 mmHg 64%
08:00 +28°C° 0 mm 1 mps 727 mmHg 57%
09:00 +31°C° 0 mm 2 mps 727 mmHg 49%
10:00 +32°C° 0 mm 2 mps 727 mmHg 44%
11:00 +35°C° 0 mm 2 mps 727 mmHg 38%
12:00 +37°C° 0 mm 3 mps 726 mmHg 33%
13:00 +36°C° 0.1 mm 3 mps 726 mmHg 36%
14:00 +35°C° 0.1 mm 4 mps 725 mmHg 40%
15:00 +34°C° 0.1 mm 4 mps 724 mmHg 43%
16:00 +33°C° 0 mm 3 mps 724 mmHg 44%
17:00 +32°C° 0 mm 2 mps 724 mmHg 45%
18:00 +32°C° 0 mm 1 mps 724 mmHg 47%
19:00 +30°C° 0 mm 1 mps 724 mmHg 55%
20:00 +27°C° 0 mm 1 mps 724 mmHg 63%
21:00 +25°C° 0 mm 1 mps 725 mmHg 72%
22:00 +24°C° 0 mm 1 mps 725 mmHg 75%
23:00 +24°C° 0 mm 1 mps 724 mmHg 78%

Mañana, 10 Agosto, Lunes

Tiempo Temperatura Precipitaciones Viento Presión Humedad
00:00 +23°C° 0 mm 1 mps 724 mmHg 82%
01:00 +23°C° 0 mm 1 mps 724 mmHg 81%
02:00 +23°C° 0 mm 1 mps 724 mmHg 80%
03:00 +22°C° 0 mm 1 mps 724 mmHg 79%
04:00 +22°C° 0 mm 1 mps 724 mmHg 79%
05:00 +22°C° 0 mm 1 mps 724 mmHg 80%
06:00 +20°C° 0 mm 0 mps 724 mmHg 80%
07:00 +24°C° 0 mm 1 mps 724 mmHg 71%
08:00 +26°C° 0 mm 1 mps 724 mmHg 62%
09:00 +28°C° 0 mm 2 mps 725 mmHg 52%
10:00 +30°C° 0 mm 2 mps 724 mmHg 46%
11:00 +32°C° 0 mm 2 mps 724 mmHg 39%
12:00 +35°C° 0 mm 3 mps 724 mmHg 33%
13:00 +36°C° 0 mm 3 mps 724 mmHg 32%
14:00 +36°C° 0 mm 3 mps 724 mmHg 31%
15:00 +37°C° 0 mm 3 mps 723 mmHg 30%
16:00 +35°C° 0 mm 4 mps 723 mmHg 35%
17:00 +33°C° 0 mm 4 mps 724 mmHg 40%
18:00 +32°C° 0 mm 5 mps 724 mmHg 44%
19:00 +29°C° 0 mm 4 mps 724 mmHg 49%
20:00 +28°C° 0 mm 4 mps 725 mmHg 54%
21:00 +26°C° 0 mm 3 mps 725 mmHg 59%
22:00 +25°C° 0 mm 2 mps 725 mmHg 62%
23:00 +24°C° 0 mm 2 mps 725 mmHg 66%

Pasado mañana, 11 Agosto, Martes

Tiempo Temperatura Precipitaciones Viento Presión Humedad
00:00 +23°C° 0 mm 1 mps 724 mmHg 69%
01:00 +23°C° 0 mm 1 mps 724 mmHg 70%
02:00 +22°C° 0 mm 1 mps 724 mmHg 70%
03:00 +22°C° 0 mm 1 mps 724 mmHg 71%
04:00 +22°C° 0 mm 1 mps 724 mmHg 70%
05:00 +22°C° 0 mm 1 mps 724 mmHg 69%
06:00 +22°C° 0 mm 1 mps 724 mmHg 69%
07:00 +24°C° 0 mm 2 mps 724 mmHg 62%
08:00 +26°C° 0 mm 2 mps 724 mmHg 55%
09:00 +28°C° 0 mm 3 mps 724 mmHg 48%
10:00 +30°C° 0 mm 4 mps 724 mmHg 42%
11:00 +33°C° 0 mm 5 mps 724 mmHg 37%
12:00 +36°C° 0 mm 7 mps 724 mmHg 31%
13:00 +33°C° 1 mm 8 mps 724 mmHg 40%
14:00 +29°C° 1 mm 9 mps 723 mmHg 50%
15:00 +27°C° 1 mm 9 mps 722 mmHg 59%
16:00 +26°C° 0.8 mm 8 mps 723 mmHg 61%
17:00 +26°C° 0.8 mm 6 mps 723 mmHg 63%
18:00 +25°C° 0.8 mm 4 mps 723 mmHg 65%
19:00 +23°C° 0.9 mm 4 mps 724 mmHg 71%
20:00 +22°C° 0.9 mm 4 mps 724 mmHg 77%
21:00 +21°C° 0.9 mm 3 mps 725 mmHg 83%
22:00 +20°C° 1 mm 3 mps 725 mmHg 83%
23:00 +20°C° 1 mm 3 mps 724 mmHg 84%

12 Agosto, Miércoles

Tiempo Temperatura Precipitaciones Viento Presión Humedad
00:00 +20°C° 1 mm 3 mps 724 mmHg 85%
01:00 +19°C° 0.2 mm 2 mps 724 mmHg 87%
02:00 +19°C° 0.2 mm 2 mps 724 mmHg 89%
03:00 +18°C° 0.2 mm 2 mps 724 mmHg 91%
04:00 +18°C° 0 mm 2 mps 724 mmHg 91%
05:00 +18°C° 0 mm 2 mps 723 mmHg 91%
06:00 +19°C° 0 mm 1 mps 723 mmHg 91%
07:00 +20°C° 0.1 mm 2 mps 724 mmHg 84%
08:00 +23°C° 0.1 mm 2 mps 724 mmHg 77%
09:00 +25°C° 0.1 mm 2 mps 724 mmHg 70%
10:00 +27°C° 0.5 mm 2 mps 724 mmHg 61%
11:00 +28°C° 0.5 mm 2 mps 724 mmHg 53%
12:00 +30°C° 0.5 mm 2 mps 725 mmHg 45%
13:00 +30°C° 0.3 mm 2 mps 724 mmHg 46%
14:00 +30°C° 0.3 mm 3 mps 724 mmHg 48%
15:00 +29°C° 0.3 mm 3 mps 724 mmHg 49%
16:00 +28°C° 0.5 mm 4 mps 724 mmHg 58%
17:00 +26°C° 0.5 mm 4 mps 724 mmHg 67%
18:00 +23°C° 0.5 mm 5 mps 724 mmHg 76%
19:00 +22°C° 0.4 mm 4 mps 724 mmHg 80%
20:00 +21°C° 0.4 mm 3 mps 725 mmHg 84%
21:00 +20°C° 0.4 mm 3 mps 725 mmHg 88%
22:00 +20°C° 0 mm 2 mps 726 mmHg 88%
23:00 +19°C° 0 mm 2 mps 726 mmHg 88%

13 Agosto, Jueves

Tiempo Temperatura Precipitaciones Viento Presión Humedad
00:00 +20°C° 0 mm 1 mps 726 mmHg 88%
01:00 +20°C° 0 mm 1 mps 726 mmHg 89%
02:00 +18°C° 0 mm 2 mps 726 mmHg 89%
03:00 +18°C° 0 mm 2 mps 725 mmHg 90%
04:00 +18°C° 0 mm 2 mps 726 mmHg 90%
05:00 +18°C° 0 mm 2 mps 726 mmHg 90%
06:00 +17°C° 0 mm 2 mps 726 mmHg 90%
07:00 +19°C° 0 mm 2 mps 726 mmHg 84%
08:00 +20°C° 0 mm 2 mps 726 mmHg 78%
09:00 +21°C° 0 mm 2 mps 726 mmHg 73%
10:00 +23°C° 0 mm 2 mps 726 mmHg 67%
11:00 +25°C° 0 mm 2 mps 726 mmHg 60%
12:00 +26°C° 0 mm 3 mps 726 mmHg 54%
13:00 +26°C° 0.1 mm 3 mps 726 mmHg 54%
14:00 +27°C° 0.1 mm 3 mps 726 mmHg 54%
15:00 +27°C° 0.1 mm 3 mps 726 mmHg 53%
16:00 +26°C° 0 mm 3 mps 725 mmHg 58%
17:00 +25°C° 0 mm 3 mps 725 mmHg 62%
18:00 +24°C° 0 mm 3 mps 725 mmHg 67%
19:00 +21°C° 0 mm 2 mps 726 mmHg 74%
20:00 +20°C° 0 mm 2 mps 726 mmHg 80%
21:00 +19°C° 0 mm 1 mps 726 mmHg 87%
22:00 +19°C° 0 mm 1 mps 726 mmHg 88%
23:00 +18°C° 0 mm 1 mps 726 mmHg 89%

14 Agosto, Viernes

Tiempo Temperatura Precipitaciones Viento Presión Humedad
00:00 +18°C° 0 mm 1 mps 726 mmHg 90%
01:00 +18°C° 0 mm 1 mps 726 mmHg 89%
02:00 +18°C° 0 mm 1 mps 725 mmHg 89%
03:00 +18°C° 0 mm 1 mps 725 mmHg 88%
04:00 +18°C° 0 mm 1 mps 725 mmHg 87%
05:00 +18°C° 0 mm 1 mps 725 mmHg 86%
06:00 +16°C° 0 mm 0 mps 725 mmHg 85%
07:00 +20°C° 0 mm 1 mps 725 mmHg 77%
08:00 +22°C° 0 mm 1 mps 725 mmHg 68%
09:00 +25°C° 0 mm 1 mps 725 mmHg 60%
10:00 +26°C° 0 mm 1 mps 725 mmHg 54%
11:00 +28°C° 0 mm 2 mps 725 mmHg 48%
12:00 +30°C° 0 mm 2 mps 725 mmHg 42%
13:00 +31°C° 0 mm 3 mps 724 mmHg 39%
14:00 +33°C° 0 mm 3 mps 724 mmHg 35%
15:00 +34°C° 0 mm 3 mps 724 mmHg 32%
16:00 +31°C° 0 mm 3 mps 724 mmHg 40%
17:00 +29°C° 0 mm 3 mps 723 mmHg 49%
18:00 +27°C° 0 mm 3 mps 723 mmHg 57%
19:00 +25°C° 0 mm 3 mps 724 mmHg 67%
20:00 +23°C° 0 mm 2 mps 724 mmHg 76%
21:00 +19°C° 0 mm 2 mps 724 mmHg 86%
22:00 +19°C° 0 mm 2 mps 724 mmHg 87%
23:00 +19°C° 0 mm 2 mps 725 mmHg 87%
Mostrar más